[Iaude] MPEC U262: 2022 QG265 [a=1.66,e=0.50,i=2.7,H=30.1]
    mpec at marsden.cfa.harvard.edu 
    mpec at marsden.cfa.harvard.edu
       
    Wed Oct 25 17:30:08 EDT 2023
    
    
  
M.P.E.C. 2023-U262                             Issued 2023 October 25, 21:28 UT
     The Minor Planet Electronic Circulars contain information on unusual
         minor planets, routine data on comets and natural satellites,
         and occasional editorial announcements.  They are published
    on behalf of Division F of the International Astronomical Union by the
          Minor Planet Center, Smithsonian Astrophysical Observatory,
                          Cambridge, MA 02138, U.S.A.
			  
             Prepared using the Tamkin Foundation Computer Network
                              MPC at CFA.HARVARD.EDU
            URL https://www.minorplanetcenter.net/    ISSN 1523-6714
                                   2022 QG265                                   
Observations:
     K22QQ5G* C2022 08 31.68119723 52 05.306-13 18 46.01         17.7 GVEU262P07
     K22QQ5G  C2022 08 31.78614700 36 52.344-08 50 48.55         17.0 GVEU262P07
     K22QQ5G  C2022 08 31.83373501 06 34.838-05 35 33.50         17.6 GVEU262P07
     K22QQ5G  C2022 08 31.88330601 46 06.814-01 04 45.70         17.1 GVEU262P07
     K22QQ5G  C2022 08 31.88510501 47 43.714-00 53 35.63         18.1 GVEU262P07
Observer details:
P07 Space Surveillance Telescope, HEH Station.  Observers M. Blythe, R.
    Brungard, P. Festler, T. McVey, J. Paige, G. Spitz, L. Banks.  Measurers
    M. Cornell, M. Kotson, R. Rios, J. Ruprecht, J. Vaillancourt, J. Varey, H.
    Viggh, D. Woods, R. Monardez, A. Lue.  3.5-m f/1. Reflector + CCD.
Orbital elements:
2022 QG265                                               Earth MOID = 0.0001 AU
Epoch 2023 Sept. 13.0 TT = JDT 2460200.5                Veres                   
M 153.88276              (2000.0)            P               Q                  
n   0.46277733     Peri.   61.31139     +0.76751263     -0.64080198             
a   1.6553430      Node   338.52570     +0.57048258     +0.69505925             
e   0.4958194      Incl.    2.69907     +0.29235934     +0.32598383             
P   2.13           H   30.19          G   0.15           U   9                  
Residuals in seconds of arc
220831 P07  0.1-  0.0     220831 P07  0.3-  0.2-    220831 P07  0.1+  0.1-
220831 P07  0.3+  0.2+    220831 P07  0.0   0.2+
Ephemeris:
2022 QG265               a,e,i = 1.66, 0.50, 3                   q = 0.8346
Date    TT    R. A. (2000) Decl.     Delta      r    Elong.  Phase     V
2023 09 25    13 22 58.0 -10 25 55   3.3557  2.4524    21.8     8.7
...
2023 10 10    13 46 20.4 -12 42 08   3.4275  2.4657    13.2     5.3
...
2023 10 18    13 59 01.8 -13 52 43   3.4513  2.4706     8.7     3.5
...
2023 10 24    14 08 38.5 -14 44 27   3.4622  2.4732     5.3     2.1
2023 10 25    14 10 15.1 -14 52 57   3.4634  2.4736     4.7     1.9
2023 10 26    14 11 51.8 -15 01 26   3.4645  2.4739     4.2     1.7
...
2023 11 01    14 21 34.9 -15 51 32   3.4675  2.4754     1.7     0.7    35.0
...
2023 11 09    14 34 39.6 -16 56 16   3.4623  2.4761     4.7     1.9
...
2023 11 24    14 59 31.0 -18 50 13   3.4234  2.4732    13.4     5.3
M. P. C. Staff               (C) Copyright 2023 MPC           M.P.E.C. 2023-U262
    
    
More information about the Iaude
mailing list